FW1310 Weather Reports


Display with metric or nautical units.
time (UTC)temp
F
wind
direction
speed
MPH
gust
MPH
rain 1hr
in
rain 24hr
in
rain mn
in
humidity
%
barometer
mb
20240527160004 89 247 1.0 2.0 0.00 0.00 0.00 66 1004.9
20240527155504 87 145 0.0 2.0 0.00 0.00 0.00 69 1004.8
20240527155004 87 22 0.0 2.0 0.00 0.00 0.00 70 1004.9
20240527154503 88 308 1.0 2.0 0.00 0.00 0.00 68 1004.8
20240527154004 88 164 1.0 2.0 0.00 0.00 0.00 68 1004.7
20240527153504 87 174 2.0 3.0 0.00 0.00 0.00 69 1004.7
20240527152003 87 191 1.0 2.0 0.00 0.00 0.00 70 1004.6
20240527151004 85 159 1.0 2.0 0.00 0.00 0.00 73 1004.6
20240527150504 85 259 0.0 2.0 0.00 0.00 0.00 75 1004.5
20240527150004 86 299 0.0 2.0 0.00 0.00 0.00 73 1004.6
20240527145004 84 262 0.0 1.0 0.00 0.00 0.00 77 1004.4
20240527144504 82 265 1.0 2.0 0.00 0.00 0.00 78 1004.4
20240527144003 82 246 1.0 2.0 0.00 0.00 0.00 79 1004.4
20240527143503 82 277 0.0 1.0 0.00 0.00 0.00 80 1004.5
20240527143004 82 23 0.0 2.0 0.00 0.00 0.00 81 1004.3
20240527142504 82 78 0.0 3.0 0.00 0.00 0.00 81 1004.1
20240527142004 81 73 0.0 3.0 0.00 0.00 0.00 83 1004.2
20240527141504 81 297 0.0 2.0 0.00 0.00 0.00 84 1004.0
20240527141004 81 32 0.0 2.0 0.00 0.00 0.00 84 1004.2
20240527140503 81 24 1.0 2.0 0.00 0.00 0.00 84 1004.1
20240527140004 80 298 1.0 1.0 0.00 0.00 0.00 85 1003.9
20240527135504 80 268 1.0 1.0 0.00 0.00 0.00 85 1003.9
20240527135004 80 20 1.0 1.0 0.00 0.00 0.00 86 1003.8
20240527134504 80 259 0.0 0.0 0.00 0.00 0.00 86 1003.9
20240527134004 80 249 0.0 0.0 0.00 0.00 0.00 86 1003.7
20240527133504 79 295 1.0 1.0 0.00 0.00 0.00 87 1003.7
20240527133003 79 296 0.0 1.0 0.00 0.00 0.00 88 1003.6
20240527132503 79 67 0.0 0.0 0.00 0.00 0.00 88 1003.5
20240527132004 79 337 0.0 2.0 0.00 0.00 0.00 89 1003.6
20240527131004 79 295 0.0 0.0 0.00 0.00 0.00 90 1003.5
20240527130503 78 279 0.0 1.0 0.00 0.00 0.00 90 1003.4
20240527130004 78 299 0.0 1.0 0.00 0.00 0.00 91 1003.2
20240527125504 78 294 0.0 0.0 0.00 0.00 0.00 91 1003.4
20240527125002 78 311 0.0 1.0 0.00 0.00 0.00 91 1003.2
20240527124502 78 307 0.0 0.0 0.00 0.00 0.00 92 1003.1
20240527124002 78 260 0.0 1.0 0.00 0.00 0.00 92 1003.0
20240527123003 77 296 0.0 2.0 0.00 0.00 0.00 93 1003.0
20240527122502 77 211 0.0 2.0 0.00 0.00 0.00 93 1003.0
20240527121502 77 224 3.0 6.0 0.00 0.00 0.00 94 1002.2
20240527121002 77 306 1.0 2.0 0.00 0.00 0.00 94 1002.1
20240527120002 77 75 1.0 3.0 0.00 0.00 0.00 94 1001.9
20240527115503 77 261 1.0 3.0 0.00 0.00 0.00 95 1001.9
20240527115002 77 257 1.0 3.0 0.00 0.00 0.00 95 1001.8
20240527114502 77 332 1.0 2.0 0.00 0.00 0.00 95 1001.8
20240527114002 77 76 2.0 5.0 0.00 0.00 0.00 95 1001.7
20240527113501 77 323 5.0 7.0 0.00 0.00 0.00 95 1001.6
20240527113003 77 278 1.0 3.0 0.00 0.00 0.00 95 1001.6
20240527112002 77 4 1.0 3.0 0.00 0.00 0.00 95 1001.4
20240527111502 77 99 1.0 3.0 0.00 0.00 0.00 96 1001.2
20240527111002 77 232 1.0 6.0 0.00 0.00 0.00 96 1001.1
20240527110003 77 97 0.0 1.0 0.00 0.00 0.00 96 1001.1
20240527105002 77 315 2.0 5.0 0.00 0.00 0.00 96 1001.0
20240527104503 77 288 3.0 6.0 0.00 0.00 0.00 96 1001.0
20240527103502 77 236 1.0 3.0 0.00 0.00 0.00 96 1000.8
20240527103003 77 221 1.0 3.0 0.00 0.00 0.00 96 1001.0
20240527102002 77 247 1.0 5.0 0.00 0.00 0.00 96 1000.7
20240527101502 77 188 3.0 7.0 0.00 0.00 0.00 96 1000.7
20240527100502 77 331 2.0 7.0 0.00 0.00 0.00 96 1000.6
20240527100002 77 266 2.0 6.0 0.00 0.00 0.00 95 1000.5
20240527095002 77 312 1.0 3.0 0.00 0.00 0.00 95 1000.5
20240527094502 77 358 2.0 5.0 0.00 0.00 0.00 95 1000.5
20240527093502 76 291 1.0 2.0 0.00 0.00 0.00 95 1000.5
20240527093002 76 256 1.0 3.0 0.00 0.00 0.00 95 1000.3
20240527092502 76 267 0.0 1.0 0.00 0.00 0.00 95 1000.2
20240527091502 77 298 1.0 3.0 0.00 0.00 0.00 95 1000.1
20240527091002 77 276 1.0 3.0 0.00 0.00 0.00 94 1000.1
20240527090502 76 291 0.0 3.0 0.00 0.00 0.00 94 1000.0
20240527084502 77 273 2.0 5.0 0.00 0.00 0.00 94 999.7
20240527083003 77 300 3.0 5.0 0.00 0.00 0.00 93 999.8
20240527082502 77 248 1.0 3.0 0.00 0.00 0.00 93 1000.0
20240527082002 78 310 3.0 7.0 0.00 0.00 0.00 93 999.8
20240527081502 78 268 3.0 7.0 0.00 0.00 0.00 93 999.7
20240527081002 78 337 2.0 5.0 0.00 0.00 0.00 93 999.9
20240527080502 78 261 2.0 6.0 0.00 0.00 0.00 92 999.8
20240527075502 78 289 2.0 7.0 0.00 0.00 0.00 92 999.7
20240527075003 78 316 2.0 3.0 0.00 0.00 0.00 92 999.9
20240527073502 78 268 2.0 7.0 0.00 0.00 0.00 91 1000.0
20240527072502 79 44 2.0 6.0 0.00 0.00 0.00 90 999.9
20240527072002 79 333 3.0 6.0 0.00 0.00 0.00 90 999.9
20240527071502 79 310 2.0 8.0 0.00 0.00 0.00 90 999.8
20240527071002 79 350 2.0 5.0 0.00 0.00 0.00 90 999.9
20240527070503 79 339 2.0 7.0 0.00 0.00 0.00 89 999.9
20240527070002 79 307 3.0 8.0 0.00 0.00 0.00 89 1000.0
20240527065502 79 326 3.0 8.0 0.00 0.00 0.00 89 999.7
20240527065002 79 88 2.0 6.0 0.00 0.00 0.00 89 999.7
20240527064502 79 297 3.0 6.0 0.00 0.00 0.00 89 999.8
20240527064002 80 283 3.0 6.0 0.00 0.00 0.00 88 999.9
20240527063503 80 292 2.0 3.0 0.00 0.00 0.00 88 999.8
20240527063002 80 13 2.0 8.0 0.00 0.00 0.00 87 999.8
20240527062502 80 216 2.0 8.0 0.00 0.00 0.00 87 999.9
20240527061502 80 302 3.0 6.0 0.00 0.00 0.00 87 999.7
20240527061002 80 323 3.0 6.0 0.00 0.00 0.00 86 999.7
20240527060502 81 250 1.0 5.0 0.00 0.00 0.00 86 999.8
20240527060002 81 301 3.0 6.0 0.00 0.00 0.00 86 999.9
20240527055503 81 301 2.0 6.0 0.00 0.00 0.00 85 1000.0
20240527055002 81 320 2.0 5.0 0.00 0.00 0.00 85 999.9
20240527054002 81 113 2.0 7.0 0.00 0.00 0.00 84 999.7
20240527053502 81 334 3.0 7.0 0.00 0.00 0.00 84 999.9
20240527052002 82 257 2.0 5.0 0.00 0.00 0.00 83 999.9
20240527051502 82 323 2.0 9.0 0.00 0.00 0.00 82 999.9
20240527050503 82 300 3.0 6.0 0.00 0.00 0.00 82 1000.0
20240527050003 82 23 3.0 6.0 0.00 0.00 0.00 81 999.8
20240527045502 83 233 3.0 7.0 0.00 0.00 0.00 81 999.9
20240527045003 83 141 2.0 7.0 0.00 0.00 0.00 80 1000.1
20240527044002 83 248 3.0 3.0 0.00 0.00 0.00 80 1000.1
20240527043002 83 301 2.0 5.0 0.00 0.00 0.00 79 1000.0
20240527042502 84 316 2.0 5.0 0.00 0.00 0.00 78 1000.0
20240527042002 84 286 3.0 5.0 0.00 0.00 0.00 78 999.7
20240527041502 84 222 2.0 5.0 0.00 0.00 0.00 78 999.9
20240527041002 84 253 1.0 3.0 0.00 0.00 0.00 77 999.9
20240527040502 84 253 1.0 5.0 0.00 0.00 0.00 76 999.9
20240527035502 84 296 2.0 6.0 0.00 0.00 0.00 75 999.7
20240527035002 85 291 1.0 5.0 0.00 0.00 0.00 74 999.8
20240527034502 85 296 2.0 6.0 0.00 0.00 0.00 73 999.7
20240527034002 84 226 2.0 6.0 0.00 0.00 0.00 73 999.5
20240527033502 84 9 0.0 1.0 0.00 0.00 0.00 72 999.4
20240527032502 85 294 0.0 0.0 0.00 0.00 0.00 70 999.3
20240527032002 85 296 0.0 2.0 0.00 0.00 0.00 70 999.3
20240527031002 85 295 0.0 1.0 0.00 0.00 0.00 69 999.2
20240527030502 85 292 0.0 1.0 0.00 0.00 0.00 69 999.2
20240527025502 85 302 0.0 1.0 0.00 0.00 0.00 69 999.1
20240527025002 85 284 0.0 0.0 0.00 0.00 0.00 69 999.0
20240527024502 85 281 0.0 0.0 0.00 0.00 0.00 69 999.0
20240527024002 85 321 0.0 0.0 0.00 0.00 0.00 69 998.8
20240527023502 85 299 0.0 0.0 0.00 0.00 0.00 69 999.0
20240527022502 86 251 0.0 0.0 0.00 0.00 0.00 68 998.7
20240527022002 86 304 0.0 0.0 0.00 0.00 0.00 68 998.6
20240527021502 86 244 0.0 0.0 0.00 0.00 0.00 67 998.4
20240527021002 87 259 0.0 0.0 0.00 0.00 0.00 66 998.5
20240527020503 87 283 0.0 0.0 0.00 0.00 0.00 66 998.6
20240527015002 88 248 1.0 1.0 0.00 0.00 0.00 65 998.3
20240527014502 88 286 0.0 0.0 0.00 0.00 0.00 64 998.3
20240527014002 88 281 0.0 0.0 0.00 0.00 0.00 64 998.2
20240527013502 88 275 0.0 0.0 0.00 0.00 0.00 64 998.2
20240527012502 89 279 0.0 0.0 0.00 0.00 0.00 63 998.1
20240527012003 89 267 0.0 1.0 0.00 0.00 0.00 62 998.3
20240527011502 89 251 0.0 1.0 0.00 0.00 0.00 61 998.1
20240527011002 90 264 0.0 0.0 0.00 0.00 0.00 61 998.0
20240527010502 90 284 0.0 0.0 0.00 0.00 0.00 59 997.9
20240527010002 91 297 0.0 0.0 0.00 0.00 0.00 58 997.7
20240527005002 92 271 1.0 2.0 0.00 0.00 0.00 55 997.7
20240527004502 92 285 0.0 0.0 0.00 0.00 0.00 53 997.5
20240527004003 92 287 1.0 3.0 0.00 0.00 0.00 53 997.7
20240527003504 92 258 0.0 0.0 0.00 0.00 0.00 52 997.5
20240527003002 93 286 1.0 3.0 0.00 0.00 0.00 52 997.4
20240527002003 93 271 0.0 6.0 0.00 0.00 0.00 51 997.4
20240527001502 94 301 2.0 5.0 0.00 0.00 0.00 50 997.3
20240527001003 93 308 2.0 3.0 0.00 0.00 0.00 50 997.2
20240527000502 94 253 1.0 2.0 0.00 0.00 0.00 49 997.3
20240527000002 94 276 0.0 2.0 0.00 0.00 0.00 49 997.2
20240526235002 94 311 1.0 3.0 0.00 0.00 0.00 50 997.3
20240526234502 94 311 2.0 3.0 0.00 0.00 0.00 49 997.5
20240526234003 94 0 1.0 2.0 0.00 0.00 0.00 49 997.4
20240526233502 95 280 0.0 3.0 0.00 0.00 0.00 49 997.3
20240526233003 94 308 2.0 3.0 0.00 0.00 0.00 48 997.3
20240526231503 95 143 2.0 5.0 0.00 0.00 0.00 48 997.3
20240526231002 95 256 2.0 7.0 0.00 0.00 0.00 48 997.4
20240526230502 95 256 1.0 3.0 0.00 0.00 0.00 50 997.3
20240526230003 95 305 3.0 5.0 0.00 0.00 0.00 49 997.4
20240526225503 96 288 1.0 5.0 0.00 0.00 0.00 49 997.5
20240526225002 95 281 1.0 6.0 0.00 0.00 0.00 50 997.5
20240526224003 95 290 2.0 5.0 0.00 0.00 0.00 51 997.5
20240526223502 95 255 2.0 3.0 0.00 0.00 0.00 50 997.5
20240526223003 95 292 2.0 5.0 0.00 0.00 0.00 51 997.5
20240526222502 95 300 1.0 5.0 0.00 0.00 0.00 54 997.5
20240526222002 95 278 2.0 5.0 0.00 0.00 0.00 53 997.5
20240526221502 95 326 2.0 5.0 0.00 0.00 0.00 53 997.5
20240526221003 95 311 0.0 3.0 0.00 0.00 0.00 52 997.4
20240526220003 95 274 3.0 5.0 0.00 0.00 0.00 53 997.5
20240526215502 95 338 1.0 5.0 0.00 0.00 0.00 52 997.5
20240526213502 95 283 2.0 7.0 0.00 0.00 0.00 52 997.4
20240526213002 95 285 1.0 5.0 0.00 0.00 0.00 53 997.6
20240526212503 94 260 2.0 7.0 0.00 0.00 0.00 54 997.6
20240526212003 94 286 2.0 7.0 0.00 0.00 0.00 55 997.6
20240526211003 94 49 1.0 5.0 0.00 0.00 0.00 55 997.6
20240526210002 94 328 0.0 3.0 0.00 0.00 0.00 55 998.0
20240526205503 93 303 2.0 7.0 0.00 0.00 0.00 57 997.9
20240526205002 93 158 3.0 7.0 0.00 0.00 0.00 59 998.0
20240526204502 92 61 2.0 9.0 0.00 0.00 0.00 61 998.1
20240526204002 93 315 2.0 6.0 0.00 0.00 0.00 61 998.0
20240526203503 93 311 2.0 5.0 0.00 0.00 0.00 59 998.0
20240526203003 92 334 3.0 7.0 0.00 0.00 0.00 59 998.2
20240526202502 92 326 3.0 8.0 0.00 0.00 0.00 63 998.1
20240526202003 92 251 2.0 5.0 0.00 0.00 0.00 64 998.1
20240526200502 91 23 2.0 9.0 0.00 0.00 0.00 66 998.3
20240526200002 91 312 4.0 12.0 0.00 0.00 0.00 64 998.5
20240526195503 91 355 3.0 9.0 0.00 0.00 0.00 65 998.3
20240526195002 90 29 6.0 14.0 0.00 0.00 0.00 66 998.6
20240526194503 91 324 5.0 8.0 0.00 0.00 0.00 66 998.4
20240526193003 90 336 5.0 10.0 0.00 0.00 0.00 67 998.7
20240526192503 90 113 2.0 8.0 0.00 0.00 0.00 68 998.7
20240526192003 90 52 4.0 8.0 0.00 0.00 0.00 68 998.7
20240526191002 89 321 2.0 8.0 0.00 0.00 0.00 69 999.0
20240526190502 89 251 4.0 9.0 0.00 0.00 0.00 69 999.1
20240526190003 89 353 2.0 7.0 0.00 0.00 0.00 69 999.2
20240526185503 89 246 3.0 8.0 0.00 0.00 0.00 69 999.2
20240526185002 88 140 5.0 10.0 0.00 0.00 0.00 71 999.2
20240526184502 88 313 3.0 9.0 0.00 0.00 0.00 71 999.1
20240526184002 87 208 3.0 9.0 0.00 0.00 0.00 72 999.1
20240526183502 87 90 5.0 8.0 0.00 0.00 0.00 72 999.2
20240526183004 86 259 4.0 9.0 0.00 0.00 0.00 73 999.3
20240526182502 87 228 5.0 10.0 0.00 0.00 0.00 72 999.4
20240526182003 87 41 4.0 9.0 0.00 0.00 0.00 73 999.3
20240526181502 87 69 3.0 9.0 0.00 0.00 0.00 72 999.5
20240526180503 86 20 3.0 8.0 0.00 0.00 0.00 74 999.7
20240526180002 85 308 2.0 6.0 0.00 0.00 0.00 74 999.7
20240526175502 85 354 1.0 7.0 0.00 0.00 0.00 74 999.5
20240526175003 85 297 3.0 8.0 0.00 0.00 0.00 75 999.8
20240526174502 84 0 3.0 8.0 0.00 0.00 0.00 76 999.6
20240526174002 84 264 2.0 3.0 0.00 0.00 0.00 76 999.9
20240526173002 83 301 3.0 7.0 0.00 0.00 0.00 77 1000.0
20240526172502 83 121 4.0 8.0 0.00 0.00 0.00 77 1000.0
20240526171502 84 273 3.0 5.0 0.00 0.00 0.00 77 1000.0
20240526171003 84 276 3.0 7.0 0.00 0.00 0.00 76 999.9
20240526170003 83 289 1.0 6.0 0.00 0.00 0.00 77 999.9
20240526165503 84 280 3.0 6.0 0.00 0.00 0.00 77 999.9
20240526165003 83 248 6.0 9.0 0.00 0.00 0.00 77 999.9
20240526164502 84 281 6.0 10.0 0.00 0.00 0.00 76 999.8
20240526164003 83 251 5.0 8.0 0.00 0.00 0.00 77 999.9
20240526163002 82 278 5.0 9.0 0.00 0.00 0.00 79 999.7
20240526162003 82 244 5.0 7.0 0.00 0.00 0.00 79 999.7
20240526161503 81 255 3.0 12.0 0.00 0.00 0.00 81 999.7
20240526161003 81 256 5.0 10.0 0.00 0.00 0.00 81 999.6
20240526160502 80 217 4.0 7.0 0.00 0.00 0.00 82 999.6